Time,TemperatureF,DewpointF,PressureIn,WindDirection,WindDirectionDegrees,WindSpeedMPH,WindSpeedGustMPH,Humidity,HourlyPrecipIn,Conditions,Clouds,dailyrainin,SoftwareType,DateUTC
2013-09-26 00:03:00,58.0,47.0,-100.00,ENE,75,1.0,1.0,68,-99.99,,,-99.99,,2013-09-26 05:03:00,
2013-09-26 00:12:00,58.0,47.0,-100.00,ENE,75,1.0,1.0,68,-99.99,,,-99.99,,2013-09-26 05:12:00,
2013-09-26 00:52:00,59.0,49.0,-100.00,East,80,1.0,1.0,70,-99.99,,,-99.99,,2013-09-26 05:52:00,
2013-09-26 01:02:00,59.0,49.0,-100.00,East,80,1.0,1.0,70,-99.99,,,-99.99,,2013-09-26 06:02:00,
2013-09-26 01:22:00,62.0,51.0,-100.00,East,85,1.0,1.0,68,-99.99,,,-99.99,,2013-09-26 06:22:00,
2013-09-26 01:53:00,59.0,49.0,-100.00,East,85,1.0,1.0,71,-99.99,,,-99.99,,2013-09-26 06:53:00,
2013-09-26 02:22:00,61.0,53.0,-100.00,East,80,1.0,1.0,76,-99.99,,,-99.99,,2013-09-26 07:22:00,
2013-09-26 02:53:00,62.0,53.0,-100.00,East,85,1.0,1.0,73,-99.99,,,-99.99,,2013-09-26 07:53:00,
2013-09-26 03:22:00,59.0,50.0,-100.00,East,95,1.0,1.0,71,-99.99,,,-99.99,,2013-09-26 08:22:00,
2013-09-26 03:52:00,57.0,48.0,-100.00,East,95,1.0,1.0,72,-99.99,,,-99.99,,2013-09-26 08:52:00,
2013-09-26 04:54:00,59.0,51.0,-100.00,East,95,1.0,1.0,76,-99.99,,,-99.99,,2013-09-26 09:54:00,
2013-09-26 05:23:00,55.0,48.0,-100.00,ESE,105,1.0,1.0,76,-99.99,,,-99.99,,2013-09-26 10:23:00,
2013-09-26 05:53:00,58.0,51.0,-100.00,East,100,1.0,1.0,79,-99.99,,,-99.99,,2013-09-26 10:53:00,
2013-09-26 06:22:00,50.0,43.0,-100.00,East,95,1.0,1.0,77,-99.99,,,-99.99,,2013-09-26 11:22:00,
2013-09-26 06:52:00,56.0,49.0,-100.00,East,100,1.0,1.0,77,-99.99,,,-99.99,,2013-09-26 11:52:00,
2013-09-26 07:22:00,53.0,46.0,-100.00,East,100,1.0,1.0,77,-99.99,,,-99.99,,2013-09-26 12:22:00,
2013-09-26 07:52:00,53.0,46.0,-100.00,ESE,110,1.0,1.0,76,-99.99,,,-99.99,,2013-09-26 12:52:00,
2013-09-26 08:02:00,53.0,46.0,-100.00,ESE,110,1.0,1.0,76,-99.99,,,-99.99,,2013-09-26 13:02:00,
2013-09-26 08:52:00,61.0,52.0,-100.00,East,95,1.0,1.0,71,-99.99,,,-99.99,,2013-09-26 13:52:00,
2013-09-26 09:22:00,62.0,50.0,-100.00,East,95,1.0,1.0,65,-99.99,,,-99.99,,2013-09-26 14:22:00,
2013-09-26 10:22:00,70.0,49.0,-100.00,East,100,1.0,1.0,48,-99.99,,,-99.99,,2013-09-26 15:22:00,
2013-09-26 10:54:00,74.0,52.0,-100.00,ESE,110,1.0,1.0,47,-99.99,,,-99.99,,2013-09-26 15:54:00,
2013-09-26 11:24:00,74.0,49.0,-100.00,ESE,115,1.0,1.0,41,-99.99,,,-99.99,,2013-09-26 16:24:00,
2013-09-26 11:33:00,74.0,49.0,-100.00,ESE,115,1.0,1.0,41,-99.99,,,-99.99,,2013-09-26 16:33:00,
2013-09-26 11:54:00,77.0,54.0,-100.00,ESE,115,1.0,1.0,45,-99.99,,,-99.99,,2013-09-26 16:54:00,
2013-09-26 12:52:00,82.0,52.0,-100.00,SE,135,1.0,1.0,35,-99.99,,,-99.99,,2013-09-26 17:52:00,
2013-09-26 13:22:00,81.0,49.0,-100.00,ESE,105,1.0,1.0,33,-99.99,,,-99.99,,2013-09-26 18:22:00,
2013-09-26 14:52:00,81.0,53.0,-100.00,East,80,1.0,1.0,38,-99.99,,,-99.99,,2013-09-26 19:52:00,
2013-09-26 15:12:00,81.0,49.0,-100.00,South,190,1.0,1.0,33,-99.99,,,-99.99,,2013-09-26 20:12:00,
2013-09-26 15:22:00,81.0,49.0,-100.00,South,190,1.0,1.0,33,-99.99,,,-99.99,,2013-09-26 20:22:00,
2013-09-26 15:52:00,82.0,51.0,-100.00,South,175,1.0,1.0,34,-99.99,,,-99.99,,2013-09-26 20:52:00,
2013-09-26 16:54:00,83.0,45.0,-100.00,SSE,150,1.0,1.0,27,-99.99,,,-99.99,,2013-09-26 21:54:00,
2013-09-26 17:04:00,83.0,45.0,-100.00,SSE,150,1.0,1.0,27,-99.99,,,-99.99,,2013-09-26 22:04:00,
2013-09-26 17:14:00,83.0,45.0,-100.00,SSE,150,1.0,1.0,27,-99.99,,,-99.99,,2013-09-26 22:14:00,
2013-09-26 17:30:00,82.0,45.0,-100.00,SE,130,1.0,1.0,27,-99.99,,,-99.99,,2013-09-26 22:30:00,
2013-09-26 18:12:00,82.0,45.0,-100.00,SE,130,1.0,1.0,27,-99.99,,,-99.99,,2013-09-26 23:12:00,
2013-09-26 18:23:00,82.0,45.0,-100.00,SE,130,1.0,1.0,27,-99.99,,,-99.99,,2013-09-26 23:23:00,
2013-09-26 19:52:00,72.0,44.0,-100.00,East,85,1.0,1.0,36,-99.99,,,-99.99,,2013-09-27 00:52:00,
2013-09-26 23:54:00,62.0,44.0,-100.00,ESE,105,1.0,1.0,52,-99.99,,,-99.99,,2013-09-27 04:54:00,